Home > Weather > Ancona > Past weeks

Flag for Italy Weather for the Past 2 Weeks in Ancona, Italy

Now
55 °F

Partly cloudy.


Feels Like: 53 °F
Forecast: 49 / 57 °F
Wind: 9 mph from South

Location: Falconara

Current Time: Feb 12, 2016 at 10:22:43 PM

Latest Report: Feb 12, 2016 at 8:50 PM


Visibility: N/A

Pressure: 29.47 "Hg

Humidity: 55%

Dew point: 39 °F

Location of AnconaLocation

Historic Weather in Ancona — Graph

°F

Ancona Temperature Yesterday

Maximum temperature yesterday: 52 °F (at 12:50 PM)
Minimum temperature yesterday: 39 °F (at 8:50 PM)
Average temperature yesterday: 46 °F

High & Low Weather Summary for the Past Weeks

 TemperatureHumidityPressure
High64 °F (Jan 29, 2:50 PM)100% (Feb 1, 4:50 AM)30.48 "Hg (Feb 1, 4:50 AM)
Low32 °F (Feb 5, 4:50 AM)36% (Feb 5, 2:50 PM)29.18 "Hg (Feb 10, 10:51 AM)
Average50 °F72%30.08 "Hg
* Reported Jan 28 8:50 PM — Feb 12 8:50 PM, Ancona, Weather by CustomWeather, © 2016

Note: Actual official high and low records may vary slightly from our data, if they occured in-between our weather recording intervals... More about our weather records

Advertising

Ancona Weather History for the Previous 24 Hours

 ConditionsComfort  
Time TempWeatherWind HumidityBarometerVisibility
8:50 PM
Fri, Feb 12
55 °FPartly cloudy.9 mph55%29.47 "HgN/A
7:50 PM50 °FLight rain. Partly cloudy.2 mph76%29.53 "HgN/A
6:50 PM52 °FLight rain. Partly cloudy.6 mph72%29.56 "HgN/A
5:50 PM52 °FPartly cloudy.5 mph77%29.59 "HgN/A
4:50 PM50 °FPartly sunny.2 mph88%29.62 "HgN/A
3:50 PM50 °FPartly sunny.5 mph88%29.65 "HgN/A
2:50 PM50 °FScattered clouds.3 mph88%29.65 "HgN/A
1:50 PM50 °FPartly sunny.6 mph82%29.68 "HgN/A
12:50 PM52 °FScattered clouds.6 mph72%29.68 "HgN/A
11:50 AM54 °FScattered clouds.8 mph72%29.71 "HgN/A
10:50 AM54 °FScattered clouds.8 mph72%29.71 "HgN/A
9:50 AM50 °FScattered showers. Scattered clouds.9 mph71%29.71 "HgN/A
8:50 AM50 °FScattered clouds.5 mph58%29.77 "HgN/A
7:50 AM48 °FScattered clouds.5 mph62%29.71 "HgN/A
6:50 AM48 °FPassing clouds.7 mph62%29.71 "HgN/A
5:50 AM48 °FPassing clouds.6 mph62%29.74 "HgN/A
4:50 AM48 °FPassing clouds.3 mph62%29.74 "HgN/A
3:50 AM48 °FPassing clouds.5 mph58%29.77 "HgN/A
2:50 AM48 °FPassing clouds.5 mph58%29.77 "HgN/A
1:50 AM43 °FClear.2 mph76%29.80 "Hg10 mi
12:50 AM43 °FClear.3 mph71%29.80 "Hg10 mi
11:50 PM
Thu, Feb 11
45 °FClear.3 mph57%29.83 "Hg10 mi
Weather by CustomWeather, © 2016

See weather overviewHow to use our weather pages